Погода в Платресе

Кипр     34°52′44″N   32°50′24″E
темп.,
°C
ветер,
м/с
пор.,
м/с
влажн.,
%
обл.,
%
осадки,
мм/ч
давл.,
гПа
погр.,
м
14 мая, пт
пт1400:00+15ююв11650 0.0 101411
03:00+14юз11400 0.0 101411
06:00+14ю01330 0.0 101410
09:00+23юз12220 0.0 1015691
12:00+25з23279 0.0 10151433
15:00+26зсз23295 0.0 10141363
18:00+23зсз22350 0.0 1014633
21:00+15юв01700 0.0 101511
15 мая, сб
сб1500:00+15ююз11560 0.0 101511
03:00+14зюз11390 0.0 101411
06:00+14ююз22340 0.0 101312
09:00+23з12210 0.0 1013562
12:00+27з33225 0.0 10131317
15:00+27зсз33185 0.0 10111432
18:00+23зсз3324100 0.0 1011622
21:00+15зюз11390 0.0 101212
16 мая, вс
вс1600:00+14ююз22280 0.0 101115
03:00+15ю33255 0.0 101018
06:00+14ю2239100 0.0 101016
09:00+21з132490 0.0 1010653
12:00+24з3525100 0.0 10101458
15:00+24зюз3526100 0.0 10091392
18:00+21юз243233 0.0 1008846
21:00+14ююз11690 0.0 101013
17 мая, пн
пн1700:00+13ююз22650 0.0 100914
03:00+12ююз11710 0.0 100912
06:00+11ююв01650 0.0 100911
09:00+19ссз11390 0.0 1010751
12:00+24сз22330 0.0 10101627
15:00+24зсз33390 0.0 10101533
18:00+22сз23450 0.0 1010946
21:00+14зсз12830 0.0 101315
18 мая, вт
вт1800:00+15сз11600 0.0 101312
03:00+14юв11480 0.0 101211
06:00+15ююв11400 0.0 101311
09:00+23зсз11260 0.0 1014680
12:00+27зсз22270 0.0 10131531
15:00+27зсз22340 0.0 10121591
18:00+24сз21435 0.0 1012716
21:00+18ююз116119 0.0 101411